Volver al catálogo

STARLINK-2131

ActivoComunicacionesVLEO
NORAD 47728·PAYLOAD·🇺🇸 United States

Lanzado Mar 4, 2021 desde Cape Canaveral Space Force Station

Loading…

Próximos Pases (próximas 24 horas)

TLE

ActualizadoSource: CelesTrak SupGP

Época: Sep 15, 2026, 01:59 UTC

1 47728C 21017G   26258.08312500  .00237380  00000+0  91161-3 0  2582
2 47728  53.0634   7.1273 0006870 325.0618  92.4130 15.86500234    11

Sigue STARLINK-2131 en tiempo real con AllMySat

Download on the App Store